Regional Weather Roundup
Issued by NWS Kansas City/Pleasant Hill, MO

Home | Current Version | Previous Version | Text Only | Print | Product List | Glossary On
Versions: 1 2 3 4 5 6 7 8 9 10 11 12 13 14 15 16 17 18 19 20 21 22 23 24 25 26 27
000
ASUS43 KEAX 180510
RWREAX

WEATHER ROUNDUP FOR EASTERN KANSAS AND NORTHWEST MISSOURI
NATIONAL WEATHER SERVICE KANSAS CITY/PLEASANT HILL MO
1100 PM CST FRI NOV 17 2017

KSZ040-057-103>105-MOZ028-029-037-043-180600-
...KANSAS CITY METROPOLITAN AREA...

CITY           SKY/WX    TMP DP  RH WIND       PRES   REMARKS
K.C. INTL      CLOUDY    58  57  97 SE6       29.43F FOG
K.C. DOWNTOWN  CLOUDY    60  56  86 SE5       29.42F
LEES SUMMIT    MOCLDY    61  60  97 SE3       29.44F
OLATHE - IXD   CLOUDY    59  56  89 SE7       29.42F
OLATHE - OJC   CLOUDY    57  56  96 SE7       29.42F
LAWRENCE       PTCLDY    52  52 100 E6        29.40F FOG

$$

MOZ001>008-011>017-020>025-030>033-038>040-044>046-053-054-180600-
...NORTHERN AND CENTRAL MISSOURI...

CITY           SKY/WX    TMP DP  RH WIND       PRES   REMARKS
ST. JOSEPH     FOG       54  54 100 N9        29.46F VSB 1/4
MOSBY          MOCLDY    52  52 100 CALM      29.43F FOG
WARRENSBURG    CLOUDY    61  57  88 S5        29.45F
WHITEMAN AFB   MOCLDY    64  61  88 S12       29.42F
CLINTON        MOCLDY    66  61  82 MISG      29.48F
SEDALIA        MOCLDY    65  62  90 S15       29.48F
WARSAW         NOT AVBL
CHILLICOTHE      N/A     55  55 100 N3        29.47F
KIRKSVILLE     CLOUDY    57  56  96 SE3       29.49F

$$

MOZ041-047>049-056>058-063>065-088>090-097-180600-
...EASTERN AND SOUTHERN MISSOURI...

CITY           SKY/WX    TMP DP  RH WIND       PRES   REMARKS
ST. LOUIS INTL MOCLDY    58  53  84 S8        29.58F
SPIRIT OF STL  CLOUDY    63  58  83 VRB3      29.57F
COLUMBIA       MOCLDY    65  60  84 S14       29.50F
JEFFERSON CITY PTCLDY    68  60  75 S9        29.51F
ROLLA          LGT RAIN  66  60  81 S16G31    29.56F
OSAGE BEACH    CLEAR     65  60  84 S10       29.54F
SPRINGFIELD    MOCLDY    66  62  87 S14       29.55F
BRANSON        PTCLDY    68  61  77 S9G16     29.60F
JOPLIN         PTCLDY    71  64  78 S23G38    29.50F
WEST PLAINS    CLEAR     66  61  84 S12       29.65F

$$

IAZ060-094-KSZ022-034>040-054-083-096-NEZ052-066-093-180600-
...KANSAS...SOUTHEAST NEBRASKA AND IOWA...

CITY           SKY/WX    TMP DP  RH WIND       PRES   REMARKS
TOPEKA         PTCLDY    54  53  97 CALM      29.40F
MANHATTAN      MOCLDY    56  52  86 NE12      29.43S
EMPORIA        MOCLDY    64  52  64 SE12      29.38F
CHANUTE        CLOUDY    71  61  70 S20G28    29.43F
WICHITA        MOCLDY    66  43  43 SW10      29.40S
OMAHA          CLOUDY    48  41  76 N16       29.62R
LINCOLN        CLOUDY    47  39  74 N26G33    29.57F
FALLS CITY     CLOUDY    57  55  93 N12       29.47F FOG
LAMONI         FOG       53  53 100 N7        29.50F VSB 1/4
DES MOINES     FOG       47  47 100 N7        29.54F VSB 3/4

$$





USA.gov is the U.S. government's official web portal to all federal, state and local government web resources and services.